Wind_Speed
16 16 17 17 17 16 16 15 15 15 14 14 14 14 14 14 14 14 14 14 13 13 13 12 12 12 12 11 11 11 11 11 12 12 12 12 13 13 13 13 13 14 14
17 18 18 19 18 18 17 17 17 17 16 16 16 15 15 15 15 15 15 14 14 14 14 13 13 13 13 13 13 12 12 12 12 12 12 13 13 14 14 15 15 14 15
19 20 20 20 20 19 19 19 19 19 19 18 17 17 16 16 16 15 15 15 15 15 14 14 13 13 13 13 13 14 13 13 13 13 13 14 14 14 15 15 16 16 16
21 21 21 21 21 20 20 20 20 20 19 19 18 18 18 18 17 17 16 16 16 16 16 15 15 15 14 14 14 14 14 14 15 15 15 15 15 15 16 16 16 17 17
22 22 22 22 22 21 21 21 21 21 21 20 19 19 19 19 19 18 18 17 17 17 17 17 16 16 16 16 16 16 16 16 16 17 17 17 17 17 17 17 18 18 18
23 23 23 22 22 22 22 22 22 22 22 22 21 20 19 19 19 19 19 18 18 17 17 17 17 18 17 18 18 18 18 18 18 19 19 19 18 18 18 19 18 19 19
24 23 22 22 22 22 22 22 22 22 22 22 22 21 20 19 19 19 19 19 18 18 18 18 18 18 18 18 19 20 20 20 20 20 20 20 20 20 20 20 20 20 20
23 22 22 21 21 22 22 22 22 23 23 22 22 22 21 21 21 20 20 19 19 19 18 18 19 19 19 20 21 21 21 21 21 21 21 22 22 22 22 22 22 22 22
22 22 21 21 20 21 22 22 22 22 22 23 23 23 23 23 22 22 22 22 22 21 21 21 21 21 22 22 22 21 22 22 23 23 23 24 24 24 24 24 24 24 24
23 22 22 22 22 22 22 22 22 22 23 24 23 23 24 24 23 23 24 24 24 24 24 24 24 23 23 23 23 23 23 23 24 24 25 25 25 25 25 26 26 26 26
23 23 23 23 22 22 23 23 23 23 23 23 24 24 24 25 25 25 26 26 26 25 25 25 25 25 25 26 26 26 25 26 26 26 27 27 27 26 27 27 28 28 28
24 24 23 23 24 24 24 24 25 24 24 24 24 25 25 26 26 26 27 27 26 26 26 25 26 26 27 27 28 28 28 28 29 29 29 29 29 29 29 29 30 29 29
24 24 25 25 25 26 26 26 26 26 26 26 26 27 28 28 29 29 28 28 28 28 28 28 28 28 28 29 29 30 30 30 31 31 31 30 31 32 32 32 32 32 32
25 25 25 26 26 27 27 27 27 27 27 28 28 29 29 30 31 31 31 31 31 30 30 30 30 30 31 31 31 31 32 32 33 33 33 33 33 33 33 34 35 35 35
26 27 27 27 27 27 28 28 28 28 28 28 29 29 30 31 31 33 33 33 32 33 33 33 33 33 33 33 33 34 34 34 34 34 35 35 35 35 35 35 36 36 36
26 27 28 28 28 28 28 29 29 29 29 29 29 29 30 31 32 33 33 34 34 35 35 35 35 35 35 35 35 35 36 36 36 36 36 36 36 36 36 36 37 37 37
26 27 28 29 29 29 30 29 30 30 30 29 29 30 31 32 33 33 34 35 35 36 36 37 37 37 37 37 38 38 38 38 38 37 37 37 37 37 36 36 37 38 38
28 28 28 29 30 30 30 29 30 30 30 31 31 32 32 33 34 34 34 35 35 36 37 37 37 38 38 39 39 39 39 39 39 39 38 37 37 37 37 37 37 37 37
29 29 29 30 30 30 30 31 31 31 31 32 32 33 34 35 35 35 36 36 36 36 37 38 39 39 40 40 40 40 39 39 39 38 38 38 38 37 36 36 37 36 35
29 29 30 30 31 32 32 32 33 32 32 33 33 34 34 35 36 36 37 37 38 39 39 39 40 41 41 41 41 40 40 39 39 39 39 38 38 37 36 36 36 35 33
30 30 31 32 33 33 33 34 34 34 34 34 35 35 35 35 36 37 38 38 39 40 41 41 41 41 41 41 41 41 40 40 40 40 39 39 38 37 37 36 35 34 34
32 32 32 33 33 34 34 35 35 35 35 35 36 36 36 36 36 36 37 37 38 38 39 40 40 40 40 41 42 42 41 40 40 40 39 39 38 38 38 37 35 35 34
32 33 33 33 34 35 35 35 35 35 35 35 36 36 36 36 36 36 35 36 36 36 36 37 38 38 38 39 40 40 40 40 40 39 39 38 38 38 37 36 35 35 35
33 33 33 33 34 34 35 35 35 35 35 35 36 36 36 36 36 36 35 35 35 36 36 37 37 37 37 38 38 39 39 39 39 39 38 38 38 37 37 36 36 35 35
32 32 32 33 33 33 34 34 34 34 35 35 36 36 36 35 35 35 35 35 35 35 35 35 36 36 36 37 37 37 37 37 38 38 38 38 37 36 36 36 35 35 35
31 32 32 32 32 33 33 33 33 34 34 34 34 34 34 34 34 34 34 34 34 34 34 34 34 34 35 35 35 36 36 37 37 37 37 36 35 34 34 34 35 34 34
Wind_Direction
270 271 270 270 270 268 269 268 269 270 270 271 271 269 270 271 270 270 271 272 273 273 273 274 273 270 268 270 273 273 268 270 270 273 274 276 277 278 280 281 282 283 284
269 270 271 270 268 267 268 268 269 269 268 268 268 268 269 270 269 269 268 270 271 273 273 272 272 269 268 269 271 272 269 270 270 271 275 277 278 279 281 280 281 283 284
269 270 269 268 267 267 268 267 269 269 268 267 266 266 267 268 268 268 267 268 269 270 271 270 270 270 270 269 269 269 268 269 270 271 274 279 281 283 283 282 281 282 283
269 268 267 267 267 266 266 266 268 268 266 264 265 267 266 265 266 267 268 269 269 269 269 268 268 268 267 267 268 268 268 269 270 273 274 278 282 283 283 284 282 283 282
267 269 268 266 265 266 266 266 267 267 266 265 265 266 266 265 265 264 265 267 267 268 268 267 267 267 266 266 267 267 268 270 271 273 275 278 280 281 282 283 282 281 281
267 268 267 265 265 265 265 265 266 268 267 265 265 265 264 263 262 263 264 263 263 264 267 268 268 267 267 265 266 267 269 271 272 273 275 278 279 280 280 280 281 282 282
268 269 266 266 265 265 265 264 265 265 266 264 263 264 263 262 260 261 262 262 263 265 266 268 268 268 268 267 267 268 270 272 273 273 274 276 278 279 279 281 282 282 282
267 268 265 265 265 265 267 267 265 264 264 264 263 264 263 262 261 260 261 262 263 265 266 267 267 268 268 268 268 268 269 271 272 273 274 276 278 278 279 281 283 282 283
266 267 267 266 266 267 269 268 267 266 264 265 266 264 263 262 263 263 263 264 264 265 267 267 267 267 267 269 269 268 269 270 271 273 275 278 279 278 279 281 281 282 283
267 267 267 265 266 267 267 267 268 269 267 266 267 265 264 263 264 264 264 265 265 264 264 265 266 267 267 267 268 269 269 271 273 275 276 278 280 280 280 280 281 280 281
269 269 267 266 265 266 267 267 269 269 268 268 267 266 264 263 262 262 263 263 264 264 264 264 266 268 269 270 270 270 270 271 273 276 277 278 278 279 280 280 281 280 280
269 269 268 267 266 266 267 269 269 268 268 267 266 266 266 265 263 263 263 263 263 263 263 264 265 267 268 269 270 270 270 271 273 274 276 277 278 279 279 279 280 279 279
268 268 268 267 267 267 268 269 270 270 269 268 268 267 267 266 265 264 264 264 264 264 265 266 266 268 270 270 270 270 270 270 272 274 276 277 277 277 277 278 279 279 280
268 268 269 268 268 268 268 269 270 270 270 270 269 269 268 267 266 265 265 265 264 265 266 266 268 268 270 271 271 271 271 271 273 274 275 276 277 277 277 278 279 279 280
270 270 270 270 269 269 268 269 269 270 269 270 271 271 270 269 267 266 266 265 263 264 265 265 267 268 269 270 270 272 273 273 274 275 276 276 276 277 278 279 279 279 279
270 269 269 270 271 270 269 269 269 270 270 271 271 270 271 271 269 267 266 266 264 264 265 265 267 267 268 269 270 271 272 273 274 275 276 276 277 277 279 279 279 279 279
272 270 269 269 270 271 270 270 270 270 271 272 272 272 272 272 271 269 268 267 266 265 265 266 268 268 268 269 271 272 272 273 273 274 275 276 276 277 278 279 279 279 280
274 273 272 271 271 272 273 270 269 269 271 272 273 273 272 272 273 272 270 269 268 267 267 267 267 268 270 270 270 272 273 273 273 273 274 274 275 277 278 278 280 280 280
275 274 274 274 274 273 273 272 271 271 272 273 273 273 272 272 272 271 270 270 270 270 269 269 269 269 270 270 271 271 271 272 272 273 273 274 276 277 278 279 279 280 279
275 274 275 276 276 275 274 273 273 273 273 273 274 274 273 273 273 272 271 271 272 272 271 271 271 272 271 270 271 270 270 270 271 272 272 273 274 275 276 277 278 278 277
275 275 276 277 277 276 275 274 274 274 274 273 274 275 274 275 274 273 273 273 273 272 271 272 273 273 272 270 270 270 269 270 270 270 271 272 272 273 275 275 275 275 275
277 277 276 277 277 276 275 275 275 275 274 274 273 274 274 275 276 276 275 275 274 273 273 273 273 272 271 271 270 270 269 270 271 270 270 271 270 272 273 274 274 274 275
280 279 277 277 278 278 277 276 276 275 274 274 275 275 275 275 277 278 277 278 277 276 276 276 275 273 272 272 271 270 269 269 270 270 270 270 270 270 271 271 272 273 274
281 280 278 279 279 279 278 276 275 275 275 275 276 276 276 276 277 278 278 278 278 279 279 278 276 275 274 273 273 272 270 270 270 269 269 270 270 269 269 269 271 273 273
283 282 280 280 280 280 280 279 278 277 276 276 277 277 276 276 277 277 278 279 280 281 281 279 277 276 275 274 274 273 271 271 270 269 269 270 270 269 268 268 270 271 272
285 284 282 282 282 281 281 281 279 278 277 277 277 277 277 277 277 278 278 279 281 281 280 279 278 278 277 276 274 273 271 271 271 270 269 270 271 270 269 269 270 270 272
Height
5807 5806 5806 5806 5806 5806 5806 5806 5806 5806 5806 5805 5805 5805 5805 5804 5804 5804 5803 5803 5803 5803 5803 5803 5802 5802 5802 5802 5802 5802 5803 5803 5803 5803 5803 5803 5803 5803 5803 5802 5802 5802 5802
5802 5801 5801 5801 5801 5801 5801 5801 5801 5801 5801 5801 5801 5801 5800 5800 5800 5800 5800 5800 5800 5799 5799 5799 5799 5798 5799 5799 5799 5799 5799 5799 5800 5800 5800 5800 5799 5799 5799 5799 5798 5798 5798
5796 5796 5795 5795 5795 5795 5795 5796 5796 5796 5796 5796 5796 5796 5796 5796 5796 5796 5795 5795 5795 5796 5795 5795 5795 5795 5795 5795 5796 5796 5796 5796 5796 5797 5796 5796 5796 5795 5795 5795 5794 5794 5793
5789 5789 5789 5789 5789 5789 5790 5790 5790 5790 5790 5790 5791 5791 5791 5791 5791 5791 5791 5791 5791 5791 5791 5791 5791 5791 5791 5792 5792 5792 5792 5792 5792 5793 5792 5792 5792 5791 5791 5790 5790 5789 5789
5783 5783 5782 5782 5782 5783 5783 5783 5784 5784 5784 5784 5785 5785 5785 5785 5785 5786 5786 5786 5786 5786 5787 5787 5787 5787 5787 5788 5788 5788 5788 5788 5788 5788 5788 5788 5788 5787 5786 5786 5785 5784 5784
5775 5775 5775 5775 5776 5776 5776 5777 5777 5777 5778 5778 5779 5779 5779 5779 5780 5780 5781 5781 5781 5782 5782 5782 5782 5782 5782 5783 5783 5783 5784 5784 5783 5783 5783 5783 5782 5782 5781 5781 5780 5780 5779
5768 5768 5768 5768 5769 5769 5769 5770 5770 5771 5771 5772 5772 5773 5773 5774 5774 5774 5775 5775 5776 5776 5776 5777 5777 5777 5777 5777 5778 5778 5778 5778 5778 5778 5778 5777 5777 5777 5776 5775 5774 5773 5773
5760 5760 5760 5761 5761 5762 5762 5763 5763 5764 5765 5765 5766 5766 5767 5767 5768 5768 5769 5769 5770 5770 5771 5771 5771 5771 5771 5772 5772 5772 5772 5772 5772 5772 5772 5771 5771 5770 5770 5769 5768 5767 5766
5753 5754 5754 5754 5755 5755 5756 5756 5756 5757 5758 5758 5759 5759 5760 5761 5761 5761 5762 5763 5763 5764 5764 5765 5765 5765 5765 5766 5766 5766 5766 5766 5765 5765 5765 5764 5764 5763 5763 5762 5761 5760 5759
5747 5747 5747 5748 5748 5749 5749 5749 5749 5750 5750 5751 5752 5752 5753 5753 5754 5754 5755 5756 5757 5757 5758 5758 5758 5758 5758 5758 5759 5759 5759 5759 5759 5758 5758 5757 5756 5756 5755 5755 5754 5753 5752
5740 5740 5740 5741 5741 5742 5742 5743 5743 5743 5743 5744 5744 5745 5745 5746 5746 5747 5747 5748 5749 5749 5750 5750 5751 5751 5751 5751 5751 5752 5752 5751 5751 5750 5750 5749 5749 5748 5747 5746 5746 5745 5744
5733 5733 5733 5734 5734 5735 5735 5735 5735 5735 5736 5736 5737 5737 5737 5738 5738 5738 5739 5739 5740 5741 5742 5742 5743 5743 5743 5743 5743 5743 5743 5743 5742 5742 5742 5741 5740 5740 5739 5738 5737 5736 5735
5726 5726 5726 5726 5727 5727 5727 5727 5727 5727 5728 5728 5728 5729 5729 5729 5729 5730 5730 5731 5731 5732 5733 5733 5734 5734 5734 5734 5734 5734 5734 5734 5733 5733 5733 5732 5731 5730 5729 5728 5727 5726 5725
5718 5718 5718 5718 5719 5719 5719 5719 5719 5719 5719 5719 5719 5719 5720 5720 5720 5720 5721 5722 5722 5723 5723 5724 5724 5725 5725 5725 5725 5724 5724 5724 5724 5723 5723 5722 5721 5720 5719 5718 5716 5715 5714
5710 5710 5710 5710 5710 5710 5710 5710 5710 5710 5710 5710 5710 5710 5710 5710 5710 5710 5711 5711 5712 5713 5713 5714 5714 5715 5715 5714 5714 5714 5714 5713 5713 5713 5712 5711 5711 5710 5708 5707 5706 5704 5703
5702 5702 5702 5702 5702 5702 5702 5702 5701 5701 5701 5700 5700 5700 5700 5700 5700 5699 5700 5700 5701 5701 5702 5703 5703 5704 5704 5704 5704 5703 5703 5703 5702 5702 5701 5700 5699 5698 5697 5695 5694 5692 5691
5693 5693 5693 5693 5693 5693 5693 5692 5692 5692 5691 5691 5690 5690 5690 5690 5689 5689 5689 5689 5689 5689 5690 5691 5691 5692 5692 5692 5692 5691 5691 5691 5690 5690 5689 5688 5687 5686 5685 5683 5681 5680 5678
5684 5684 5684 5684 5684 5684 5683 5683 5683 5683 5682 5682 5681 5680 5680 5679 5679 5678 5678 5678 5678 5678 5678 5678 5679 5679 5679 5679 5679 5679 5679 5678 5677 5677 5676 5675 5675 5674 5672 5671 5669 5667 5666
5675 5675 5674 5674 5674 5674 5673 5673 5673 5672 5672 5672 5671 5670 5669 5668 5668 5667 5667 5666 5666 5666 5666 5666 5666 5666 5666 5665 5665 5665 5665 5665 5664 5664 5663 5663 5662 5661 5660 5659 5657 5655 5654
5666 5665 5665 5664 5664 5663 5663 5662 5662 5661 5661 5660 5660 5659 5658 5657 5657 5656 5655 5655 5654 5654 5653 5653 5653 5652 5652 5651 5651 5651 5651 5651 5651 5651 5650 5650 5649 5648 5647 5647 5645 5644 5643
5656 5655 5655 5654 5653 5653 5652 5651 5650 5650 5649 5649 5648 5647 5646 5646 5645 5644 5643 5642 5641 5641 5640 5640 5639 5638 5638 5637 5637 5637 5637 5637 5637 5637 5637 5636 5636 5636 5635 5634 5634 5633 5633
5645 5644 5643 5643 5642 5641 5640 5640 5639 5638 5637 5637 5636 5635 5634 5633 5632 5631 5631 5629 5628 5627 5627 5626 5625 5625 5624 5624 5624 5624 5624 5624 5623 5623 5623 5623 5623 5623 5623 5622 5622 5622 5621
5634 5633 5632 5631 5630 5629 5628 5627 5626 5626 5625 5624 5624 5623 5622 5621 5620 5619 5618 5617 5616 5615 5614 5613 5612 5611 5611 5610 5609 5609 5610 5610 5610 5610 5610 5610 5610 5610 5610 5610 5610 5610 5610
5623 5622 5621 5619 5618 5617 5616 5616 5615 5614 5613 5612 5612 5611 5610 5609 5609 5608 5607 5605 5604 5603 5601 5600 5599 5598 5597 5597 5596 5596 5596 5596 5596 5596 5596 5596 5597 5597 5597 5597 5598 5598 5597
5612 5611 5610 5608 5607 5606 5605 5604 5603 5602 5602 5601 5600 5599 5598 5597 5596 5596 5595 5593 5592 5591 5589 5588 5586 5585 5585 5584 5583 5583 5582 5582 5582 5582 5582 5583 5583 5583 5584 5585 5585 5585 5585
5602 5600 5599 5598 5596 5595 5594 5593 5592 5591 5590 5589 5588 5587 5586 5585 5585 5584 5583 5582 5580 5579 5577 5576 5574 5573 5573 5572 5571 5570 5570 5569 5569 5569 5569 5570 5570 5571 5571 5572 5573 5573 5573